Location: ??????
(55.6500°N, 37.8000°E)
Time: 04:40:57
(UTC+00:00)

Cosmos 2297 - Pass Details

Date: 26 July 2024
Orbit: 836 x 856 km, 71.0° (Epoch: 11 May)

Event Time Altitude Azimuth Distance (km) Brightness Sun altitude
Exits shadow 18:35:18 - 166° (SSE) 3,092 6.1 -6.0°
Reaches altitude 10° 18:37:12 10° 157° (SSE) 2,479 5.5 -6.2°
Maximum altitude 18:41:44 25° 104° (ESE) 1,651 4.8 -6.6°
Drops below altitude 10° 18:46:17 10° 51° (NE) 2,482 6.2 -7.1°
Sets 18:49:06 0° 39° (NE) 3,418 7.0 -7.3°
